Weather in Prosiana

Ukraine / Dnipropetrovsk Region     48°07′09″N   36°22′25″E
temp.,
°C
wind,
m/s
gust,
m/s
humid.,
%
clouds,
%
prec.,
mm/h
press.,
hPa
HPBL,
m
21 april, wed
wed2100:00+9wsw61094100 0.3 1005567
03:00+8w6119296 0.3 1008428
06:00+7wsw51190100 0.0 1011345
09:00+11wsw6967100 0.0 1013902
12:00+14wsw795154 0.0 10151802
15:00+15wsw794376 0.0 10151904
18:00+14sw575191 0.0 1016863
21:00+10ssw497294 0.0 1018203
22 april, thu
thu2200:00+9ssw488238 0.0 1019146
03:00+7sw35915 0.1 1020104
06:00+6sw34925 0.0 102182
09:00+12sw34695 0.0 1022544
12:00+16ssw445045 0.1 10211680
15:00+15ssw3450100 0.1 1021941
18:00+13sw4763100 0.0 1021308
21:00+12ssw367096 0.0 1022170
23 april, fri
fri2300:00+9ssw388530 0.0 1022187
03:00+8sw37885 0.1 1022134
06:00+7ssw35922 0.0 102295
09:00+13ssw56660 0.0 1021657
12:00+17ssw67465 0.0 10201983
15:00+18ssw7838100 0.0 10182596
18:00+15ssw7953100 0.0 10171151
21:00+11s61268100 0.0 1018404
24 april, sat
sat2400:00+10ssw51179100 0.3 1016393
03:00+9sw4985100 0.3 1015404
06:00+7nw689090 2.0 1016518
09:00+9nw56645 2.1 1017940
12:00+12wnw56455 0.0 10181872
15:00+14w6734100 0.0 10172681
18:00+12wsw564545 0.0 10171774
21:00+9wsw3662100 0.0 1018325
25 april, sun
sun2500:00+6w388069 0.3 1019198
03:00+4w49844 0.3 1019244
06:00+3w3685100 0.0 1019148
09:00+8wnw455288 0.0 10201059
12:00+11wnw45385 0.0 10191704
15:00+12wnw4534100 0.0 10182069
18:00+12wnw3438100 0.0 10182070
21:00+8sw3353100 0.0 101850